FlightSource - Aviation Photo Database

World Wide Airport Lookup


Search by ICAO
Or
Search by City

FlightSource.ca - Aviation Photo Database - Ching Chuan Kang Air Base Information
Airport Identification
Name: Ching Chuan Kang Air Base
ICAO: RCMQ
IATA:
Airport Location
City:
Region: TXQ
Country: Taiwan
Continent: AS
Latitude: 24.2647
Longitude: 120.621
Airport Information
Type: Medium Airport
Elevation: 663 Feet ASL
Flight Status: RCMQ
More Info: RCMQ
Airport Weather    
Metar: RCMQ 210230Z 03025G35KT 9999 SCT010 BKN050 25/19 Q1009 NOSIG RMK A2982
TAF:


Advertisement